Weather History for Nome, AK

Change the Weather History Date:

Thursday, September 5, 2013

  Actual Average Record
Temperature  
Mean Temperature 47 °F 47 °F  
Max Temperature 53 °F 53 °F 65 °F (1968)
Min Temperature 41 °F 41 °F 22 °F (1927)
Degree Days  
Heating Degree Days 18 18  
Month to date heating degree days 81 88  
Since 1 July heating degree days 855 952  
Cooling Degree Days 0    
Month to date cooling degree days 0  
Year to date cooling degree days 7  
Moisture  
Dew Point 43 °F    
Average Humidity 0    
Maximum Humidity 0    
Minimum Humidity 0    
Precipitation  
Precipitation T in 0.09 in 0.87 in (1977)
Month to date precipitation 0.77 0.46  
Year to date precipitation 13.88 10.91  
Snow  
Snow 0.00 in 0.00 in T in (1987)
Month to date snowfall 0.0 0.0  
Since 1 July snowfall 0.0 0.0  
Since 1 September snowfall 0.0 0.0  
Snow Depth 0.00 in    
Sea Level Pressure  
Sea Level Pressure 29.54 in    
Wind  
Wind Speed 8 mph (ESE)    
Max Wind Speed 16 mph    
Max Gust Speed 20 mph    
Visibility 10 miles    
Events Rain    
T = Trace of Precipitation, MM = Missing Value Source: NWS Daily Summary

Daily Weather History Graph

Daily Weather History Graph

Search for Another Location

Airport:

Trip Planner

Search our weather history database for the weather conditions in past years. The results will help you decide how hot, cold, wet, or windy it might be!

Date:

Astronomy

Sep. 05, 2013 Rise Set
Actual Time 7:56 AM AKDT 10:02 PM AKDT
Civil Twilight 7:03 AM AKDT 10:54 PM AKDT
Nautical Twilight 5:52 AM AKDT 12:03 AM AKDT
Astronomical Twilight 3:59 AM AKDT 1:50 AM AKDT
Moon 8:48 AM AKDT (9/5) 9:22 PM AKDT (9/5)
Length of Visible Light 15h 50m
Length of Day
14h 06m
New Moon, 0% of the Moon is Illuminated
Sep 5
New Moon
Sep 12
First Quarter
Sep 19
Full
Sep 26
Last Quarter
Oct 4
New

Hourly Weather History & Observations

Time (AKDT) Temp. Windchill Dew Point Humidity Pressure Visibility Wind Dir Wind Speed Gust Speed Precip Events Conditions
12:53 AM 50.0 °F - 43.0 °F 77% 29.44 in 10.0 mi SSE 8.1 mph - 0.00 in   Mostly Cloudy
1:35 AM 50.0 °F - 44.6 °F 82% 29.45 in 10.0 mi SSE 5.8 mph - 0.00 in Rain Light Rain
1:53 AM 50.0 °F - 43.0 °F 77% 29.46 in 10.0 mi SSE 12.7 mph - 0.00 in   Mostly Cloudy
2:07 AM 50.0 °F - 42.8 °F 76% 29.46 in 10.0 mi SE 10.4 mph - N/A   Scattered Clouds
2:53 AM 48.9 °F - 41.0 °F 74% 29.47 in 10.0 mi SSE 12.7 mph - N/A   Partly Cloudy
3:53 AM 45.0 °F 41.8 °F 39.9 °F 82% 29.48 in 10.0 mi ENE 5.8 mph - N/A   Partly Cloudy
4:17 AM 44.6 °F 40.7 °F 39.2 °F 81% 29.48 in 10.0 mi East 6.9 mph - 0.00 in Rain Light Rain
4:53 AM 45.0 °F 41.8 °F 42.1 °F 90% 29.48 in 10.0 mi ENE 5.8 mph - 0.00 in   Mostly Cloudy
5:26 AM 44.6 °F 40.2 °F 39.2 °F 81% 29.48 in 10.0 mi ENE 8.1 mph - N/A   Scattered Clouds
5:53 AM 43.0 °F 38.8 °F 39.0 °F 86% 29.48 in 10.0 mi ENE 6.9 mph - N/A   Scattered Clouds
6:21 AM 44.6 °F 40.7 °F 39.2 °F 81% 29.48 in 10.0 mi ENE 6.9 mph - N/A   Mostly Cloudy
6:39 AM 44.6 °F 39.7 °F 39.2 °F 81% 29.48 in 10.0 mi ENE 9.2 mph - N/A   Mostly Cloudy
6:53 AM 44.1 °F 39.0 °F 39.0 °F 82% 29.49 in 10.0 mi ENE 9.2 mph - N/A   Mostly Cloudy
7:53 AM 43.0 °F 38.2 °F 39.9 °F 89% 29.49 in 10.0 mi NE 8.1 mph - N/A   Scattered Clouds
8:26 AM 44.6 °F 40.2 °F 41.0 °F 87% 29.50 in 10.0 mi ENE 8.1 mph - N/A   Mostly Cloudy
8:53 AM 44.1 °F 39.0 °F 41.0 °F 89% 29.51 in 10.0 mi NE 9.2 mph - N/A   Mostly Cloudy
9:53 AM 45.0 °F 39.3 °F 42.1 °F 90% 29.52 in 10.0 mi NE 11.5 mph - N/A   Mostly Cloudy
10:53 AM 46.9 °F - 46.0 °F 97% 29.54 in 3.0 mi ENE 8.1 mph - 0.00 in   Light Drizzle
11:53 AM 48.9 °F - 46.0 °F 90% 29.55 in 9.0 mi ESE 10.4 mph - 0.00 in   Mostly Cloudy
12:53 PM 50.0 °F - 46.0 °F 86% 29.57 in 10.0 mi SE 11.5 mph - N/A   Mostly Cloudy
1:53 PM 51.1 °F - 45.0 °F 80% 29.58 in 10.0 mi SE 11.5 mph - N/A   Mostly Cloudy
2:30 PM 51.8 °F - 46.4 °F 82% 29.58 in 10.0 mi SE 11.5 mph - N/A   Mostly Cloudy
2:53 PM 51.1 °F - 46.0 °F 83% 29.60 in 10.0 mi ESE 12.7 mph - N/A   Mostly Cloudy
3:53 PM 52.0 °F - 48.0 °F 86% 29.61 in 5.0 mi East 13.8 mph - 0.00 in Rain Light Rain
4:53 PM 52.0 °F - 46.0 °F 80% 29.61 in 10.0 mi SE 11.5 mph - 0.00 in   Overcast
5:53 PM 52.0 °F - 44.1 °F 74% 29.62 in 10.0 mi SSE 10.4 mph - 0.00 in   Mostly Cloudy
6:53 PM 51.1 °F - 44.1 °F 77% 29.63 in 10.0 mi SE 8.1 mph - N/A   Mostly Cloudy
7:53 PM 51.1 °F - 44.1 °F 77% 29.64 in 10.0 mi South 5.8 mph - N/A   Mostly Cloudy
8:53 PM 50.0 °F - 44.1 °F 80% 29.65 in 10.0 mi Calm Calm - N/A   Mostly Cloudy
9:53 PM 50.0 °F - 44.1 °F 80% 29.66 in 10.0 mi SSW 3.5 mph - N/A   Mostly Cloudy
10:53 PM 46.0 °F 44.8 °F 43.0 °F 89% 29.68 in 10.0 mi NNE 3.5 mph - N/A   Mostly Cloudy
11:53 PM 43.0 °F - 41.0 °F 93% 29.70 in 10.0 mi Calm Calm - N/A   Scattered Clouds